Weather History for Liberia, Costa Rica

Change the Weather History Date:

Friday, October 25, 2013

  Actual Average Record
Temperature  
Mean Temperature 82 °F -  
Max Temperature 91 °F 85 °F 93 °F (2000)
Min Temperature 73 °F 72 °F 71 °F (2004)
Cooling Degree Days 17    
Growing Degree Days 32 (Base 50)    
Moisture  
Dew Point 73 °F    
Average Humidity 77    
Maximum Humidity 94    
Minimum Humidity 44    
Precipitation  
Precipitation 0.79 in - - ()
Sea Level Pressure  
Sea Level Pressure 29.82 in    
Wind  
Wind Speed 3 mph ()    
Max Wind Speed 10 mph    
Max Gust Speed -    
Visibility 7.2 miles    
Events Fog , Rain , Thunderstorm    
Averages and records for this station are not official NWS values.
T = Trace of Precipitation, MM = Missing Value Source: Averaged Metar Reports

Daily Weather History Graph

Daily Weather History Graph

Search for Another Location

Airport:

Trip Planner

Search our weather history database for the weather conditions in past years. The results will help you decide how hot, cold, wet, or windy it might be!

Date:

Astronomy

Oct. 25, 2013 Rise Set
Actual Time 5:32 AM CST 5:20 PM CST
Civil Twilight 5:10 AM CST 5:41 PM CST
Nautical Twilight 4:45 AM CST 6:06 PM CST
Astronomical Twilight 4:20 AM CST 6:31 PM CST
Moon 10:52 PM CST (10/25) 10:55 AM CST (10/25)
Length of Visible Light 12h 31m
Length of Day
11h 48m
Waning Gibbous, 62% of the Moon is Illuminated
Oct 25
Waning Gibbous
Oct 26
Last Quarter
Nov 3
New
Nov 9
First Quarter
Nov 17
Full

Hourly Weather History & Observations

Time (CST) Temp. Heat Index Dew Point Humidity Pressure Visibility Wind Dir Wind Speed Gust Speed Precip Events Conditions
6:00 AM 74 °F - 72 °F 94% 29.86 in 12 mi Calm Calm - - Fog Patches of Fog
6:00 AM 75.2 °F - 73.4 °F 94% 29.85 in 6.2 mi Calm Calm - N/A Fog Patches of Fog
7:00 AM 78.8 °F - 73.4 °F 83% 29.86 in - North 3.5 mph - N/A   Clear
8:00 AM 82.4 °F 88.2 °F 73.4 °F 74% 29.87 in - North 2.3 mph - N/A   Clear
9:00 AM 86 °F - 74 °F 60% 29.88 in 12 mi NE 2.3 mph - -   Scattered Clouds
9:00 AM 86.0 °F 93.4 °F 73.4 °F 66% 29.88 in 6.2 mi NE 2.3 mph - N/A   Mostly Cloudy
10:00 AM 87.8 °F 95.6 °F 73.4 °F 62% 29.87 in 6.2 mi Calm Calm - N/A   Scattered Clouds
11:00 AM 89.6 °F 98.2 °F 73.4 °F 59% 29.86 in 6.2 mi SW 2.3 mph - N/A   Scattered Clouds
12:00 PM 90 °F - 71 °F 44% 29.83 in 12 mi East 3.5 mph - -   Overcast
12:00 PM 89.6 °F 98.2 °F 73.4 °F 59% 29.82 in 6.2 mi East 3.5 mph - N/A   Mostly Cloudy
1:00 PM 86.0 °F 95.1 °F 75.2 °F 70% 29.79 in 6.2 mi West 10.4 mph - N/A   Mostly Cloudy
2:00 PM 87.8 °F 99.7 °F 77.0 °F 70% 29.77 in 6.2 mi West 9.2 mph - N/A   Scattered Clouds
3:00 PM 85 °F - 75 °F 65% 29.76 in 9 mi NW 10.4 mph - - Rain , Thunderstorm Thunderstorms and Rain
3:00 PM 84.2 °F 92.3 °F 75.2 °F 74% 29.75 in 6.2 mi NW 10.4 mph - N/A Rain , Thunderstorm Light Thunderstorms and Rain
3:10 PM 78.8 °F - 73.4 °F 83% 29.78 in 0.6 mi East 10.4 mph - N/A Rain , Thunderstorm Light Thunderstorms and Rain
3:26 PM 73.4 °F - 69.8 °F 88% 29.78 in 6.2 mi East 8.1 mph - N/A Rain Rain
4:00 PM 73.4 °F - 69.8 °F 88% 29.77 in 6.2 mi WSW 6.9 mph - N/A Rain Light Rain
5:00 PM 73.4 °F - 69.8 °F 88% 29.78 in 6.2 mi West 4.6 mph - N/A   Mostly Cloudy
6:00 PM 74 °F - 72 °F 91% 29.83 in 12 mi SE 4.6 mph - -   Overcast
6:00 PM 75.2 °F - 71.6 °F 89% 29.82 in 6.2 mi SE 4.6 mph - N/A   Mostly Cloudy
7:00 PM 75.2 °F - 71.6 °F 89% 29.85 in 6.2 mi Calm Calm - N/A   Mostly Cloudy
8:00 PM 75.2 °F - 73.4 °F 94% 29.88 in 6.2 mi Calm Calm - N/A   Mostly Cloudy